Liberty, SC

4:41 PM EDT on August 27, 2016 (GMT -0400)
Pickens County

Weather History for KLQK - December, 2013

Change the Weather History Date:

Tuesday, December 31, 2013

  Actual Average Record
Temperature  
Mean Temperature 42 °F -  
Max Temperature 53 °F 50 °F 85 °F (2015)
Min Temperature 31 °F 34 °F 28 °F (2014)
Degree Days  
Heating Degree Days 24    
Moisture  
Dew Point 31 °F    
Average Humidity 74    
Maximum Humidity 100    
Minimum Humidity 33    
Precipitation  
Precipitation 0.00 in - - ()
Sea Level Pressure  
Sea Level Pressure 30.25 in    
Wind  
Wind Speed - (North)    
Max Wind Speed -    
Max Gust Speed -    
Visibility 10 miles    
Events      
Averages and records for this station are not official NWS values.
T = Trace of Precipitation, MM = Missing Value Source: NWS Daily Summary

Daily Weather History Graph

Daily Weather History Graph

Search for Another Location

Airport or City:

Trip Planner

Search our weather history database for the weather conditions in past years. The results will help you decide how hot, cold, wet, or windy it might be!

Date:

Astronomy

Dec. 31, 2013 Rise Set
Actual Time 7:38 AM EST 5:29 PM EST
Civil Twilight 7:10 AM EST 5:57 PM EST
Nautical Twilight 6:38 AM EST 6:29 PM EST
Astronomical Twilight 6:07 AM EST 7:00 PM EST
Moon 6:31 AM EST (12/31) 5:02 PM EST (12/31)
Length of Visible Light 10h 47m
Length of Day
9h 51m
Waning Crescent, 1% of the Moon is Illuminated
Dec 31
Waning Crescent
Jan 1
New
Jan 7
First Quarter
Jan 15
Full
Jan 24
Last Quarter

Hourly Weather History & Observations

Time (EST) Temp. Dew Point Humidity Pressure Visibility Wind Dir Wind Speed Gust Speed Precip Events Conditions
12:15 AM 43.7 °F 36.7 °F 76% 30.13 in 10.0 mi North - - N/A   Mostly Cloudy
12:35 AM 43.2 °F 36.5 °F 77% 30.12 in 10.0 mi North - - N/A   Mostly Cloudy
12:55 AM 42.8 °F 36.3 °F 78% 30.13 in 10.0 mi North - - N/A   Scattered Clouds
1:15 AM 43.0 °F 35.8 °F 76% 30.12 in 10.0 mi North - - N/A   Clear
1:35 AM 42.3 °F 35.6 °F 77% 30.12 in 10.0 mi North - - N/A   Clear
1:55 AM 41.9 °F 35.4 °F 78% 30.12 in 10.0 mi North - - N/A   Clear
2:15 AM 41.5 °F 34.9 °F 77% 30.13 in 10.0 mi North - - N/A   Clear
2:35 AM 40.6 °F 35.1 °F 80% 30.14 in 10.0 mi North - - N/A   Clear
2:55 AM 39.9 °F 34.9 °F 82% 30.14 in 10.0 mi North - - N/A   Clear
3:15 AM 38.5 °F 35.8 °F 90% 30.15 in 10.0 mi North - - N/A   Clear
3:35 AM 38.8 °F 35.2 °F 87% 30.16 in 10.0 mi North - - N/A   Clear
3:55 AM 37.6 °F 35.1 °F 91% 30.16 in 10.0 mi North - - N/A   Clear
4:15 AM 36.1 °F 36.0 °F 99% 30.16 in 10.0 mi North - - N/A   Clear
4:35 AM 35.4 °F 35.2 °F 99% 30.17 in 10.0 mi North - - N/A   Clear
4:55 AM 35.4 °F 35.6 °F 100% 30.17 in 10.0 mi North - - N/A   Clear
5:15 AM 35.1 °F 35.1 °F 100% 30.18 in 10.0 mi North - - N/A   Clear
5:35 AM 34.0 °F 34.2 °F 100% 30.18 in 10.0 mi North - - N/A   Clear
5:55 AM 34.3 °F 34.5 °F 100% 30.18 in 10.0 mi North - - N/A   Clear
6:15 AM 33.6 °F 33.8 °F 100% 30.19 in 7.0 mi North - - N/A   Clear
6:35 AM 33.4 °F 33.4 °F 100% 30.20 in 10.0 mi North - - N/A   Clear
6:55 AM 32.5 °F 32.7 °F 100% 30.22 in 5.0 mi North - - N/A   Clear
7:15 AM 32.5 °F 32.5 °F 100% 30.22 in 7.0 mi North - - N/A   Clear
7:35 AM 32.4 °F 32.5 °F 100% 30.23 in 10.0 mi North - - N/A   Clear
7:55 AM 32.0 °F 32.2 °F 100% 30.24 in 5.0 mi North - - N/A   Clear
8:15 AM 31.8 °F 31.8 °F 100% 30.25 in 10.0 mi North - - N/A   Clear
8:35 AM 32.2 °F 32.2 °F 100% 30.25 in 10.0 mi North - - N/A   Clear
8:55 AM 33.1 °F 33.1 °F 100% 30.27 in 10.0 mi North - - N/A   Clear
9:15 AM 33.6 °F 33.8 °F 100% 30.28 in 10.0 mi North - - N/A   Clear
9:35 AM 35.1 °F 35.2 °F 100% 30.28 in 10.0 mi North - - N/A   Clear
9:55 AM - - N/A% 30.30 in 10.0 mi North - - N/A   Clear
10:15 AM 37.6 °F 36.9 °F 97% 30.30 in 10.0 mi North - - N/A   Clear
10:35 AM 39.4 °F 36.9 °F 91% 30.31 in 10.0 mi North - - N/A   Clear
10:55 AM 41.4 °F 36.0 °F 81% 30.31 in 10.0 mi North - - N/A   Clear
11:15 AM 43.3 °F 34.9 °F 72% 30.30 in 10.0 mi North - - N/A   Clear
11:35 AM 45.1 °F 32.5 °F 61% 30.29 in 10.0 mi North - - N/A   Clear
11:55 AM 47.1 °F 32.0 °F 56% 30.29 in 10.0 mi North - - N/A   Clear
12:15 PM 48.6 °F 32.4 °F 54% 30.29 in 10.0 mi North - - N/A   Clear
12:35 PM 49.8 °F 29.7 °F 46% 30.28 in 10.0 mi North - - N/A   Clear
12:55 PM 51.3 °F 26.4 °F 38% 30.28 in 10.0 mi North - - N/A   Clear
1:15 PM 52.3 °F 26.2 °F 36% 30.27 in 10.0 mi North - - N/A   Clear
1:35 PM 52.3 °F 25.3 °F 35% 30.26 in 10.0 mi North - - N/A   Clear
1:55 PM 52.7 °F 25.2 °F 34% 30.25 in 10.0 mi North - - N/A   Clear
2:15 PM 52.7 °F 25.5 °F 35% 30.25 in 10.0 mi North - - N/A   Clear
2:35 PM 52.7 °F 24.8 °F 34% 30.25 in 10.0 mi North - - N/A   Clear
2:55 PM 52.7 °F 23.9 °F 33% 30.25 in 10.0 mi North - - N/A   Clear
3:15 PM 52.7 °F 23.9 °F 33% 30.25 in 10.0 mi North - - N/A   Clear
3:35 PM 52.0 °F 24.4 °F 34% 30.25 in 10.0 mi North - - N/A   Clear
3:55 PM 51.4 °F 23.9 °F 34% 30.26 in 10.0 mi North - - N/A   Clear
4:15 PM 50.7 °F 25.7 °F 38% 30.27 in 10.0 mi North - - N/A   Clear
4:35 PM 49.5 °F 27.5 °F 43% 30.27 in 10.0 mi North - - N/A   Clear
4:55 PM 48.7 °F 27.0 °F 43% 30.28 in 10.0 mi North - - N/A   Clear
5:15 PM 47.3 °F 28.6 °F 48% 30.28 in 10.0 mi North - - N/A   Clear
5:35 PM 45.9 °F 29.1 °F 52% 30.30 in 10.0 mi North - - N/A   Clear
5:55 PM 45.5 °F 28.6 °F 52% 30.31 in 10.0 mi North - - N/A   Clear
6:15 PM 44.4 °F 29.3 °F 55% 30.31 in 10.0 mi North - - N/A   Clear
6:35 PM 43.7 °F 28.6 °F 55% 30.31 in 10.0 mi North - - N/A   Clear
6:55 PM 41.4 °F 29.8 °F 64% 30.32 in 10.0 mi North - - N/A   Clear
7:15 PM 42.3 °F 27.3 °F 56% 30.32 in 10.0 mi North - - N/A   Clear
7:35 PM 41.7 °F 27.5 °F 57% 30.32 in 10.0 mi North - - N/A   Clear
7:55 PM 38.8 °F 28.9 °F 68% 30.33 in 10.0 mi North - - N/A   Clear
8:15 PM 39.6 °F 27.7 °F 62% 30.33 in 10.0 mi North - - N/A   Clear
8:35 PM 36.1 °F 30.6 °F 80% 30.34 in 10.0 mi North - - N/A   Clear
8:55 PM 34.3 °F 31.1 °F 88% 30.34 in 10.0 mi North - - N/A   Clear
9:15 PM 34.3 °F 30.6 °F 86% 30.34 in 10.0 mi North - - N/A   Clear
9:35 PM 34.5 °F 30.0 °F 84% 30.34 in 10.0 mi North - - N/A   Clear
9:55 PM 33.3 °F 30.7 °F 90% 30.35 in 10.0 mi North - - N/A   Clear
10:15 PM 32.7 °F 31.3 °F 94% 30.34 in 10.0 mi North - - N/A   Clear
10:35 PM 32.5 °F 30.7 °F 93% 30.34 in 10.0 mi North - - N/A   Clear
10:55 PM 31.8 °F 30.7 °F 96% 30.34 in 10.0 mi North - - N/A   Clear
11:15 PM 32.0 °F 30.7 °F 95% 30.34 in 10.0 mi North - - N/A   Clear
11:35 PM 32.0 °F 30.0 °F 92% 30.33 in 10.0 mi North - - N/A   Clear
11:55 PM 31.8 °F 29.8 °F 92% 30.33 in 10.0 mi North - - N/A   Clear